DECAYED

STARLINK-2174, 47756 (Decayed)

Orbit data source: Space-Track

STARLINK-2174, 47756 was a payload satellite owned by SpaceX/Seattle (US) in LEO that was launched on Thu, 04 Mar 2021 UTC via an FALCON 9 launch vehicle from the Air Force Eastern Test Range (AFETR). Payload-class satellites include a variety of spacecraft equipped with specific instruments for various scientific and technological missions. These include communications satellites like Starlink; space stations such as the ISS; scientific satellites like the Hubble; Earth observation satellites from companies like Planet Labs, Umbra, and HawkEye 360; GPS; miniature CubeSats for education and research; and military/defense satellites.

Not visible in the next 10 days
Identifier
47756, 2021-017AL
Orbit
Decayed
Country
Flag of USUS
Related business
Manufacturer
SpaceX/Seattle
Mission
Decayed Commercial Communications
Bus & Motor
STARLINK, Unknown motor
Mass
260 kg wet, ~248 kg dry
Launch date (UTC)
2021-03-04 (5 years ago)
Launch vehicle
FALCON 9
Launch site
Air Force Eastern Test Range (AFETR)
Object type
Payload
Rocket body
Debris
Shape & HBR
Box + 1 Pan, 10.1 m
Radar Cross Section
13.562 m², Large (>1 m²)

Expand to show TLE details & history
Last TLE update: 2 years ago

TLE from 2 years ago
0 STARLINK-2174
1 47756U 21017AL  25041.73134741  .13265707  12497-4  74242-3 0  9992
2 47756  53.0281 124.8365 0004889 339.8820 161.6031 16.42067360218667
Epoch: 2025-02-10T17:33Z
TLE epoch observation values (Epoch: 2025-02-10T17:33:08.416Z)
Latitude
29.91952°
Longitude
-125.00799°
Altitude
165.017 km
Speed
7.81 km/s
True Right ascension
18h 37m 17s
True Declination
29° 45' 27"
Sunlit
Object was in daylight at epoch
Visualization orbit readout
Latitude
Unknown
Longitude
Unknown
Altitude
Unknown
Speed
Unknown
Apparent Right ascension
Unknown
Apparent Declination
Unknown
Sunlit
N/A
Visualization observer readout
Local Sidereal Time
04:19:24
Azimuth
Unknown
Elevation
Unknown
Doppler factor
Unknown
Orbital elements
Apogee altitude
163.796 km
Perigee altitude
157.403 km
Semi-major axis
6,538.737 km
Eccentricity
0.00049
Inclination
53.0281°
RAAN
124.8365°
Arg. of periapsis
339.882°
True anomaly
161.62077°
Mean anomaly
161.6031°
Eccentric anomaly
161.61194°
Mean motion
4.1049 °/min
Orbital period
87.7 mins
BSTAR
0.00074242
Loading maneuver chart data...
Computing Atmospheric mass density...

Documentation

Showing up to 5 results
|